Regional Weather Roundup
Issued by NWS

Home | Current Version | Previous Version | Graphics & Text | Print | Product List | Glossary Off
Versions: 1 2 3 4 5 6 7 8 9 10 11 12 13 14 15 16 17 18 19 20 21 22 23 24 25 26 27 28 29 30 31 32 33 34 35 36 37 38 39 40 41 42 43 44 45 46 47 48 49 50

000
ASUS43 KMPX 200710
RWRMN
WEATHER ROUNDUP FOR MINNESOTA
NATIONAL WEATHER SERVICE TWIN CITIES/CHANHASSEN MN
200 AM CDT FRI APR 20 2018


NOTE: "FAIR" INDICATES FEW OR NO CLOUDS BELOW 12,000 FEET WITH NO
SIGNIFICANT WEATHER AND/OR OBSTRUCTIONS TO VISIBILITY. N/A MEANS
CURRENT SKY AND/OR WEATHER CONDITIONS ARE NOT AVAILABLE.

MNZ060>063-068>070-200800-
   Twin Cities Metro

CITY           SKY/WX    TMP DP  RH WIND       PRES   REMARKS
TWIN CITIES    FAIR      36  26  67 SW5       30.47R
ST PAUL        FAIR      32  25  75 CALM      30.48R
CRYSTAL        FAIR      31  23  72 CALM      30.46R
BLAINE         FAIR      34  25  69 CALM      30.46R
LAKEVILLE      FAIR      27  23  86 CALM      30.47R
EDEN PRAIRIE   FAIR      31  24  75 SW5       30.46R WCI  26
SOUTH ST PAUL  FAIR      31  23  72 CALM      30.47S
LAKE ELMO      FAIR      28  23  80 CALM      30.47S
$$
MNZ001>005-007-008-013>017-022>024-027-028-200800-
   Northwest Minnesota

CITY           SKY/WX    TMP DP  RH WIND       PRES   REMARKS
BEMIDJI        FAIR      29  22  74 CALM      30.39S
HALLOCK        FAIR      34  32  93 S7        30.38R WCI  28
ROSEAU         FAIR      34  28  80 CALM      30.38S
WARROAD        FAIR      30  27  86 CALM      30.39S
THIEF RVR FALL FAIR      34  29  82 S5        30.40R WCI  30
CROOKSTON      FAIR      34  32  93 S3        30.40S
FOSSTON        FAIR      28  16  59 CALM      30.40S
DETROIT LAKES  FAIR      36  32  87 SW6       30.42S
MOORHEAD       FAIR      36  34  93 S9        30.42S
PARK RAPIDS    FAIR      32  24  72 CALM      30.41R
MAHNOMEN       FAIR      34  27  74 S6        30.40S WCI  29
$$
MNZ006-009>011-018-025>026-200800-
   North Central Minnesota

CITY           SKY/WX    TMP DP  RH WIND       PRES   REMARKS
BAUDETTE       FAIR      29  24  82 CALM      30.38S
FLAG ISLAND    FAIR      37  23  56 CALM      30.37S
INTL FALLS     FAIR      25  21  85 CALM      30.38S
WASKISH        FAIR      27  23  86 CALM      30.39S
BIG FORK       FAIR      27  19  74 CALM      30.39S
LONGVILLE      FAIR      27  21  80 CALM      30.41S
GRAND RAPIDS   FAIR      29  22  75 CALM      30.41S
CRANE LAKE     FAIR      21  19  93 CALM      30.41S
ORR            FAIR      25  18  74 CALM      30.36F
COOK           FAIR      25  19  80 CALM      30.39F
WALKER         FAIR      33  23  66 SW5       30.40R WCI  29
$$
MNZ012-019>021-037-200800-
   Northeast Minnesota

CITY           SKY/WX    TMP DP  RH WIND       PRES   REMARKS
DULUTH         FAIR      35  18  49 NW5       30.40R WCI  31
ELY            FAIR      25  18  74 CALM      30.39R
HIBBING        FAIR      23  18  81 CALM      30.39S
EVELETH        FAIR      24  20  83 CALM      30.40S
DULUTH HARBOR  FAIR      37  19  48 SW7       30.42S
TWO HARBORS    FAIR      32  21  64 CALM      30.38S
SILVER BAY     FAIR      27  19  74 CALM      30.38R
GRAND MARAIS     N/A     32  17  54 CALM      30.38S
G MARAIS ARPRT FAIR      25  16  68 NW5       30.37S WCI  19
$$
MNZ029>031-032-039>041-046>048-054>057-064-200800-
   West Central Minnesota

CITY           SKY/WX    TMP DP  RH WIND       PRES   REMARKS
FERGUS FALLS   MOCLDY    34  28  80 S6        30.43R WCI  29
WHEATON        PTCLDY    36  28  75 S3        30.45S
MORRIS         CLEAR     34  30  86 SE5       30.44S WCI  30
ALEXANDRIA     FAIR      35  25  66 SW9       30.44S WCI  28
ELBOW LAKE     FAIR      31  28  90 S7        30.44S WCI  24
WADENA         FAIR      32  27  80 CALM      30.42S
GLENWOOD       FAIR      30  27  86 SW6       30.45S WCI  24
APPLETON       CLEAR     34  27  75 CALM      30.45S
BENSON         CLEAR     30  27  86 S3        30.47S
ORTONVILLE     CLEAR     32  27  80 SE3       30.44S
MADISON        CLEAR     34  28  80 S5        30.44F WCI  30
WILLMAR        FAIR      32  27  80 CALM      30.49R
$$
MNZ033>034-036-042>043-049>051-058-059-200800-
   Central Minnesota

CITY           SKY/WX    TMP DP  RH WIND       PRES   REMARKS
ST CLOUD       FAIR      29  27  92 CALM      30.45R
SAUK CENTRE    FAIR      33  26  75 CALM      30.45S
PAYNESVILLE    FAIR      31  28  88 W3        30.46S
AITKIN         FAIR      34  21  60 SW3       30.41S
PINE RIVER     FAIR      27  21  80 CALM      30.44S
BRAINERD       FAIR      30  21  69 S3        30.43R
STAPLES        FAIR      34  21  60 CALM      30.43R
LONG PRAIRIE   FAIR      34  25  69 S6        30.44S WCI  29
LITTLE FALLS   FAIR      30  21  69 CALM      30.45R
LITCHFIELD     FAIR      34  27  75 CALM      30.47R
BUFFALO        FAIR      29  25  85 CALM      30.48R
MAPLE LAKE     FAIR      32  28  86 CALM      30.47R
HUTCHINSON     FAIR      29  27  91 CALM      30.48S
$$
MNZ037-044-045-052-053-200800-
   East Central Minnesota

CITY           SKY/WX    TMP DP  RH WIND       PRES   REMARKS
PRINCETON      FAIR      28  25  86 CALM      30.46R
MORA           FAIR      30  27  86 CALM      30.45S
CAMBRIDGE      FAIR      30  21  69 CALM      30.46R
RUSH CITY      FAIR      32  25  76 CALM      30.45R
MOOSE LAKE     FAIR      28  19  69 CALM      30.41R
HINCKLEY       FAIR      32  28  86 CALM      30.44R
CLOQUET        FAIR      36  16  44 W3        30.41R
MCGREGOR       FAIR      32  21  64 CALM      30.42S
$$
MNZ071>073-080-081-089-090-097-098-200800-
   Southwest Minnesota

CITY           SKY/WX    TMP DP  RH WIND       PRES   REMARKS
MONTEVIDEO     CLEAR     30  25  80 SW3       30.46S
GRANITE FALLS  CLOUDY    30  27  90 S5        30.48S WCI  25
CANBY          MOCLDY    34  23  65 W3        30.45F
MARSHALL       CLOUDY    29  22  75 S7        30.46S WCI  22
REDWOOD FALLS  CLOUDY    28  22  78 SW3       30.47R
OLIVIA         CLEAR     32  28  86 SW3       30.47R
PIPESTONE      CLOUDY   N/A N/A N/A SE3       30.43F
WINDOM         CLOUDY    25  10  54 CALM      30.46S
WORTHINGTON    CLOUDY    30  21  69 SE6       30.46S WCI  24
JACKSON        CLOUDY    28  21  74 CALM      30.46F
TRACY          CLOUDY    31  25  80 SW6       30.46S WCI  25
SLAYTON        CLOUDY    25  21  85 S3        30.45S
$$
MNZ065>067-074>077-082>085-091>093-200800-
   South Central Minnesota

CITY           SKY/WX    TMP DP  RH WIND       PRES   REMARKS
MANKATO        FAIR      31  23  72 SW3       30.48S
NEW ULM        CLOUDY    27  21  80 SW3       30.47F
ST JAMES       CLOUDY    23  19  86 CALM      30.49S
FAIRMONT       CLOUDY    20  17  88 W3        30.48S
GLENCOE        FAIR      29  28  97 CALM      30.47R
FARIBAULT      FAIR      25  21  86 CALM      30.48R
OWATONNA       FAIR      27  23  86 SW3       30.47S
WASECA         FAIR      25  21  86 CALM      30.49S
ALBERT LEA     FAIR      21  18  86 CALM      30.47S
$$
MNZ078>079-086>088-094>096-200800-
   Southeast Minnesota

CITY           SKY/WX    TMP DP  RH WIND       PRES   REMARKS
ROCHESTER      FAIR      30  23  75 W9        30.46S WCI  22
RED WING       FAIR      27  19  74 CALM      30.47R
STANTON        FAIR      27  22  84 S5        30.46R WCI  21
DODGE CENTER   FAIR      28  21  74 SW6       30.46S WCI  22
WINONA         FAIR      30  27  86 CALM      30.46S
AUSTIN         FAIR      21  19  93 CALM      30.47S FOG
PRESTON        FAIR      30  22  70 W6        30.46F WCI  24
$$
ABBREVIATIONS USED IN REMARKS
   TC - TEMPERATURES IN CELSIUS
  WCI - WIND CHILL INDEX
   HX - HEAT INDEX
  VSB - VISIBILITY
$$




USA.gov is the U.S. government's official web portal to all federal, state and local government web resources and services.